TimeEST,TemperatureF,Dew PointF,Humidity,Sea Level PressureIn,VisibilityMPH,Wind Direction,Wind SpeedMPH,Gust SpeedMPH,PrecipitationIn,Events,Conditions,WindDirDegrees,DateUTC
12:15 AM,37.4,37.4,100,29.96,7.0,NW,3.5,-,N/A,,Overcast,310,2012-11-07 05:15:00
12:35 AM,39.2,39.2,100,29.97,7.0,NW,3.5,-,N/A,,Overcast,320,2012-11-07 05:35:00
12:55 AM,39.2,39.2,100,29.96,10.0,NNW,4.6,-,N/A,,Overcast,340,2012-11-07 05:55:00
1:15 AM,41.0,41.0,100,29.96,10.0,Calm,Calm,-,N/A,,Overcast,0,2012-11-07 06:15:00
1:35 AM,41.0,41.0,100,29.96,10.0,NW,3.5,-,N/A,,Overcast,320,2012-11-07 06:35:00
1:55 AM,41.0,41.0,100,29.95,10.0,Calm,Calm,-,N/A,,Overcast,0,2012-11-07 06:55:00
2:15 AM,41.0,41.0,100,29.95,10.0,Calm,Calm,-,N/A,,Overcast,0,2012-11-07 07:15:00
2:35 AM,41.0,41.0,100,29.94,10.0,Calm,Calm,-,N/A,,Overcast,0,2012-11-07 07:35:00
2:55 AM,41.0,41.0,100,29.93,10.0,Calm,Calm,-,N/A,,Overcast,0,2012-11-07 07:55:00
3:15 AM,41.0,41.0,100,29.93,10.0,Calm,Calm,-,N/A,,Overcast,0,2012-11-07 08:15:00
3:55 AM,41.0,39.2,93,29.93,10.0,Calm,Calm,-,N/A,,Overcast,0,2012-11-07 08:55:00
4:15 AM,41.0,39.2,93,29.93,10.0,Calm,Calm,-,N/A,,Overcast,0,2012-11-07 09:15:00
4:35 AM,41.0,39.2,93,29.94,10.0,Calm,Calm,-,N/A,,Overcast,0,2012-11-07 09:35:00
4:55 AM,41.0,41.0,100,29.94,10.0,Calm,Calm,-,N/A,,Overcast,0,2012-11-07 09:55:00
5:15 AM,41.0,41.0,100,29.94,10.0,Calm,Calm,-,N/A,,Overcast,0,2012-11-07 10:15:00
5:35 AM,41.0,41.0,100,29.94,10.0,Calm,Calm,-,N/A,,Overcast,0,2012-11-07 10:35:00
5:55 AM,41.0,41.0,100,29.94,10.0,Calm,Calm,-,N/A,,Overcast,0,2012-11-07 10:55:00
6:15 AM,41.0,41.0,100,29.95,7.0,Calm,Calm,-,N/A,,Overcast,0,2012-11-07 11:15:00
6:35 AM,41.0,41.0,100,29.95,7.0,Calm,Calm,-,N/A,,Overcast,0,2012-11-07 11:35:00
6:55 AM,41.0,41.0,100,29.95,7.0,Calm,Calm,-,N/A,,Overcast,0,2012-11-07 11:55:00
7:15 AM,41.0,41.0,100,29.96,5.0,Calm,Calm,-,N/A,Rain,Rain,0,2012-11-07 12:15:00
7:35 AM,41.0,41.0,100,29.96,7.0,Calm,Calm,-,N/A,,Light Drizzle,0,2012-11-07 12:35:00
7:55 AM,41.0,41.0,100,29.97,5.0,Calm,Calm,-,N/A,,Overcast,0,2012-11-07 12:55:00
8:15 AM,41.0,41.0,100,29.97,5.0,Calm,Calm,-,N/A,,Overcast,0,2012-11-07 13:15:00
8:35 AM,41.0,41.0,100,29.98,7.0,Calm,Calm,-,N/A,,Overcast,0,2012-11-07 13:35:00
8:55 AM,41.0,41.0,100,29.98,7.0,Calm,Calm,-,N/A,Rain,Rain,0,2012-11-07 13:55:00
9:15 AM,42.8,41.0,93,29.98,7.0,Calm,Calm,-,N/A,,Overcast,0,2012-11-07 14:15:00
9:35 AM,42.8,41.0,93,29.98,10.0,Calm,Calm,-,N/A,,Overcast,0,2012-11-07 14:35:00
9:55 AM,42.8,39.2,87,29.98,10.0,Calm,Calm,-,N/A,,Overcast,0,2012-11-07 14:55:00
10:15 AM,42.8,37.4,81,29.97,10.0,Calm,Calm,-,N/A,Rain,Light Rain,0,2012-11-07 15:15:00
10:35 AM,44.6,37.4,76,29.97,10.0,Calm,Calm,-,N/A,,Overcast,0,2012-11-07 15:35:00
10:55 AM,44.6,39.2,81,29.97,10.0,Calm,Calm,-,N/A,,Overcast,0,2012-11-07 15:55:00
11:15 AM,44.6,39.2,81,29.96,10.0,Calm,Calm,-,N/A,,Overcast,0,2012-11-07 16:15:00
11:35 AM,44.6,39.2,81,29.96,10.0,Calm,Calm,-,N/A,,Overcast,0,2012-11-07 16:35:00
11:55 AM,46.4,41.0,81,29.95,7.0,Calm,Calm,-,N/A,,Overcast,0,2012-11-07 16:55:00
12:15 PM,46.4,41.0,81,29.95,10.0,Calm,Calm,-,N/A,,Overcast,0,2012-11-07 17:15:00
12:35 PM,46.4,41.0,81,29.94,10.0,Calm,Calm,-,N/A,,Overcast,0,2012-11-07 17:35:00
12:55 PM,46.4,41.0,81,29.93,10.0,Calm,Calm,-,N/A,,Overcast,0,2012-11-07 17:55:00
1:15 PM,48.2,41.0,76,29.92,10.0,Calm,Calm,-,N/A,,Overcast,0,2012-11-07 18:15:00
1:35 PM,48.2,41.0,76,29.91,10.0,Calm,Calm,-,N/A,,Overcast,0,2012-11-07 18:35:00
1:55 PM,50.0,41.0,71,29.90,10.0,Calm,Calm,-,N/A,,Overcast,0,2012-11-07 18:55:00
2:15 PM,50.0,41.0,71,29.90,10.0,ESE,3.5,-,N/A,,Overcast,120,2012-11-07 19:15:00
2:35 PM,50.0,41.0,71,29.89,10.0,Calm,Calm,-,N/A,,Overcast,0,2012-11-07 19:35:00
2:55 PM,51.8,42.8,71,29.89,10.0,Calm,Calm,-,N/A,,Mostly Cloudy,0,2012-11-07 19:55:00
3:15 PM,51.8,42.8,71,29.89,10.0,SSW,3.5,-,N/A,,Scattered Clouds,210,2012-11-07 20:15:00
3:35 PM,51.8,42.8,71,29.89,10.0,Calm,Calm,-,N/A,,Scattered Clouds,0,2012-11-07 20:35:00
3:55 PM,51.8,42.8,71,29.89,10.0,Calm,Calm,-,N/A,,Mostly Cloudy,0,2012-11-07 20:55:00
4:15 PM,51.8,42.8,71,29.90,10.0,Calm,Calm,-,N/A,,Overcast,0,2012-11-07 21:15:00
4:35 PM,50.0,42.8,76,29.90,10.0,NE,3.5,-,N/A,,Overcast,50,2012-11-07 21:35:00
4:55 PM,50.0,42.8,76,29.91,10.0,Calm,Calm,-,N/A,,Overcast,0,2012-11-07 21:55:00
5:15 PM,50.0,44.6,82,29.92,10.0,Calm,Calm,-,N/A,Rain,Light Rain,0,2012-11-07 22:15:00
5:35 PM,50.0,46.4,87,29.93,10.0,Calm,Calm,-,N/A,Rain,Light Rain,0,2012-11-07 22:35:00
6:15 PM,46.4,46.4,100,29.94,7.0,NW,4.6,-,N/A,Rain,Light Rain,310,2012-11-07 23:15:00
6:35 PM,46.4,46.4,100,29.95,7.0,NNW,3.5,-,N/A,,Overcast,330,2012-11-07 23:35:00
6:55 PM,46.4,46.4,100,29.96,7.0,Calm,Calm,-,N/A,,Overcast,0,2012-11-07 23:55:00
7:15 PM,46.4,46.4,100,29.96,7.0,Calm,Calm,-,N/A,,Overcast,0,2012-11-08 00:15:00
7:35 PM,46.4,46.4,100,29.97,7.0,Calm,Calm,-,N/A,,Overcast,0,2012-11-08 00:35:00
7:55 PM,46.4,46.4,100,29.97,7.0,Calm,Calm,-,N/A,,Overcast,0,2012-11-08 00:55:00
8:15 PM,46.4,46.4,100,29.98,5.0,WNW,3.5,-,N/A,,Overcast,300,2012-11-08 01:15:00
8:35 PM,44.6,44.6,100,29.98,7.0,Calm,Calm,-,N/A,,Overcast,0,2012-11-08 01:35:00
8:55 PM,44.6,44.6,100,30.00,7.0,Calm,Calm,-,N/A,,Overcast,0,2012-11-08 01:55:00
9:15 PM,44.6,44.6,100,30.01,5.0,Calm,Calm,-,N/A,,Overcast,0,2012-11-08 02:15:00
9:35 PM,44.6,44.6,100,30.01,4.0,Calm,Calm,-,N/A,,Scattered Clouds,0,2012-11-08 02:35:00
9:55 PM,42.8,42.8,100,30.01,1.2,Calm,Calm,-,N/A,,Scattered Clouds,0,2012-11-08 02:55:00
10:15 PM,41.0,41.0,100,30.01,1.0,Calm,Calm,-,N/A,,Scattered Clouds,0,2012-11-08 03:15:00
10:35 PM,39.2,39.2,100,30.01,0.8,Calm,Calm,-,N/A,,Overcast,0,2012-11-08 03:35:00
10:55 PM,37.4,37.4,100,30.01,0.5,Calm,Calm,-,N/A,Fog,Fog,0,2012-11-08 03:55:00
11:15 PM,39.2,39.2,100,30.01,0.5,Calm,Calm,-,N/A,Fog,Fog,0,2012-11-08 04:15:00
11:35 PM,39.2,39.2,100,30.01,0.2,Calm,Calm,-,N/A,Fog,Fog,0,2012-11-08 04:35:00
11:55 PM,37.4,37.4,100,30.01,0.2,Calm,Calm,-,N/A,Fog,Fog,0,2012-11-08 04:55:00